Location: Newark
(48.1500°N, 13.1167°E)
Time: 22:34:50
(UTC+00:00)

XW-2D - Pass Details

Date: 06 December 2021
Orbit: 502 x 522 km, 97.5° (Epoch: 19 January)

Event Time Altitude Azimuth Distance (km) Brightness Sun altitude
Rises 05:14:33 0° 13° (NNE) 2,670 ? -14.0°
Reaches altitude 10° 05:16:40 10° 13° (NNE) 1,776 ? -13.7°
Maximum altitude 05:20:30 87° 97° (E) 532 ? -13.1°
Drops below altitude 10° 05:24:19 10° 193° (SSW) 1,758 ? -12.5°
Sets 05:26:24 0° 194° (SSW) 2,640 ? -12.2°
